User: anonymous
Location: Mississauga
(43.5802°N, 79.6166°W)
Time: 02:24:11
(UTC-04:00)
Language:

Cosmos 1437 Rocket - Orbit

View from above orbital plane
View from above orbital plane
View from above satellite
View from above satellite

Ground track
Ground track

The orbit data is extracted from the following two-line orbital elements,

1 13771U 83003B   14274.48578135  .00004895  00000-0  32508-3 0  1452
2 13771 081.1549 062.4064 0031406 040.8201 319.5366 15.06637142724551
Epoch (UTC): 01 October 2014 11:39:31
Eccentricity: 0.0031406
inclination: 81.1549°
perigee height: 525 km
apogee height: 568 km
right ascension of ascending node: 62.4064°
argument of perigee: 40.8201°
revolutions per day: 15.06637142
mean anomaly at epoch: 319.5366°
orbit number at epoch: 72455

The dashed part of the orbit path shows where the satellite is in the earth's shadow,  

DLR